User: anonymous   Login
Location: Brompton
(51.4000°N, 0.5333°E)
Time: 08:15:19
(UTC+00:00)
Language:

MTI - Orbit

View from above orbital plane
View from above orbital plane
View from above satellite
View from above satellite

Ground track
Ground track

The orbit data is extracted from the following two-line orbital elements,

1 26102U 00014A   21216.68404480  .00011894  00000-0  13675-3 0  9990
2 26102  97.4614 125.8351 0007684 129.4571 230.7396 15.62151681188871
Epoch (UTC): 04 August 2021 16:25:01
Eccentricity: 0.0007684
inclination: 97.4614°
perigee height: 376 km
apogee height: 386 km
right ascension of ascending node: 125.8351°
argument of perigee: 129.4571°
revolutions per day: 15.62151681
mean anomaly at epoch: 230.7396°
orbit number at epoch: 18887

The dashed part of the orbit path shows where the satellite is in the earth's shadow,  

DLR